Topeka, KS

7:50 AM CST on January 21, 2018 (GMT -0600)
Billard Municipal

Weather History for KTOP - August, 2013

Change the Weather History Date:

Saturday, August 31, 2013

  Actual Average Record
Temperature  
Mean Temperature 85 °F 74 °F  
Max Temperature 96 °F 86 °F 107 °F (2000)
Min Temperature 73 °F 63 °F 47 °F (1967)
Degree Days  
Heating Degree Days 0 0  
Month to date heating degree days 0 0  
Since 1 June heating degree days 5 10  
Since 1 July heating degree days 0 2  
Cooling Degree Days 20 10  
Month to date cooling degree days 388 386  
Year to date cooling degree days 1294 1228  
Since 1 June cooling degree days 1149 1102  
Growing Degree Days 34 (Base 50)    
Moisture  
Dew Point 71 °F    
Average Humidity 63    
Maximum Humidity 87    
Minimum Humidity 39    
Precipitation  
Precipitation 0.02 in 0.13 in 3.88 in (1977)
Month to date precipitation 5.21 4.24  
Year to date precipitation 24.47 26.57  
Snow  
Snow 0.00 in 0.00 in T in (1974)
Month to date snowfall 0.0 0.0  
Year to date snowfall 24.2 11.3  
Since 1 July snowfall 0.0 0.0  
Snow Depth 0.00 in    
Sea Level Pressure  
Sea Level Pressure 29.81 in    
Wind  
Wind Speed 2 mph (East)    
Max Wind Speed 13 mph    
Max Gust Speed 15 mph    
Visibility 10 miles    
Events Rain , Thunderstorm    
T = Trace of Precipitation, MM = Missing Value Source: NWS Daily Summary

Daily Weather History Graph

Daily Weather History Graph

Search for Another Location

Airport or City:

Trip Planner

Search our weather history database for the weather conditions in past years. The results will help you decide how hot, cold, wet, or windy it might be!

Date:

Astronomy

Aug. 31, 2013 Rise Set
Actual Time 6:50 AM CDT 7:54 PM CDT
Civil Twilight 6:23 AM CDT 8:21 PM CDT
Nautical Twilight 5:50 AM CDT 8:54 PM CDT
Astronomical Twilight 5:16 AM CDT 9:27 PM CDT
Moon 2:21 AM CDT (8/31) 4:51 PM CDT (8/31)
Length of Visible Light 13h 58m
Length of Day
13h 03m
Waning Crescent, 21% of the Moon is Illuminated
Aug 31
Waning Crescent
Sep 5
New
Sep 12
First Quarter
Sep 19
Full
Sep 26
Last Quarter

Hourly Weather History & Observations

Time (CDT) Temp. Heat Index Dew Point Humidity Pressure Visibility Wind Dir Wind Speed Gust Speed Precip Events Conditions
12:53 AM 80.1 °F 83.6 °F 71.1 °F 74% 29.82 in 10.0 mi Calm Calm - N/A   Clear
1:53 AM 79.0 °F - 70.0 °F 74% 29.81 in 10.0 mi Calm Calm - N/A   Clear
2:53 AM 75.9 °F - 70.0 °F 82% 29.80 in 10.0 mi Calm Calm - N/A   Clear
3:53 AM 77.0 °F - 70.0 °F 79% 29.80 in 10.0 mi Calm Calm - N/A   Clear
4:53 AM 75.9 °F - 70.0 °F 82% 29.81 in 10.0 mi Calm Calm - N/A   Clear
5:53 AM 73.0 °F - 68.0 °F 84% 29.81 in 10.0 mi Calm Calm - N/A   Partly Cloudy
6:53 AM 73.9 °F - 69.1 °F 85% 29.82 in 10.0 mi SSE 3.5 mph - N/A   Clear
7:53 AM 75.0 °F - 71.1 °F 87% 29.84 in 9.0 mi WNW 5.8 mph - N/A   Clear
8:53 AM 78.1 °F - 71.1 °F 79% 29.86 in 10.0 mi NNW 5.8 mph - N/A   Partly Cloudy
9:10 AM 79.0 °F - 73.0 °F 82% 29.89 in 10.0 mi NNE 9.2 mph - N/A   Mostly Cloudy
9:53 AM 81.0 °F 86.2 °F 73.9 °F 79% 29.85 in 10.0 mi NE 4.6 mph - N/A   Clear
10:53 AM 82.9 °F 90.2 °F 75.0 °F 77% 29.83 in 10.0 mi East 4.6 mph - N/A   Clear
11:53 AM 84.9 °F 93.3 °F 75.0 °F 72% 29.83 in 10.0 mi Calm Calm - N/A   Mostly Cloudy
12:22 PM 82.0 °F 89.4 °F 75.9 °F 82% 29.87 in 5.0 mi South 6.9 mph - 0.02 in Rain , Thunderstorm Light Rain
12:39 PM 82.0 °F 87.4 °F 73.0 °F 74% 29.83 in 10.0 mi NE 10.4 mph - 0.02 in Rain Light Rain
12:53 PM 82.0 °F 87.4 °F 73.0 °F 74% 29.80 in 10.0 mi North 8.1 mph - 0.02 in   Scattered Clouds
1:25 PM 84.0 °F 91.2 °F 73.9 °F 72% 29.84 in 10.0 mi East 3.5 mph - 0.00 in Thunderstorm Mostly Cloudy
1:40 PM 84.9 °F 91.4 °F 73.0 °F 67% 29.84 in 10.0 mi SE 4.6 mph - 0.00 in   Mostly Cloudy
1:53 PM 86.0 °F 93.0 °F 73.0 °F 65% 29.81 in 10.0 mi ESE 5.8 mph - 0.00 in   Mostly Cloudy
2:53 PM 91.9 °F 97.4 °F 70.0 °F 48% 29.81 in 10.0 mi ESE 3.5 mph - N/A   Clear
3:53 PM 93.0 °F 97.4 °F 68.0 °F 44% 29.79 in 10.0 mi Variable 3.5 mph - N/A   Clear
4:53 PM 95.0 °F 99.0 °F 66.9 °F 40% 29.78 in 10.0 mi Calm Calm - N/A   Clear
5:53 PM 95.0 °F 99.0 °F 66.9 °F 40% 29.78 in 10.0 mi Calm Calm - N/A   Clear
6:53 PM 91.9 °F 98.4 °F 71.1 °F 50% 29.77 in 10.0 mi East 4.6 mph - N/A   Clear
7:53 PM 87.1 °F 94.5 °F 73.0 °F 63% 29.76 in 10.0 mi Calm Calm - N/A   Clear
8:53 PM 82.0 °F 87.4 °F 73.0 °F 74% 29.77 in 10.0 mi Calm Calm - N/A   Clear
9:53 PM 79.0 °F - 73.9 °F 84% 29.78 in 10.0 mi Calm Calm - 0.00 in   Clear
10:53 PM 79.0 °F - 72.0 °F 79% 29.78 in 10.0 mi Calm Calm - N/A   Clear
11:53 PM 77.0 °F - 71.1 °F 82% 29.78 in 10.0 mi Calm Calm - N/A   Clear